DMSP 5D-3 F16 (USA 172)

Last updated on Sat Aug 15 2026 00:02:40 GMT+0000 (Coordinated Universal Time)

1 28054U 03048A 26226.60243354 -.00000044 00000+0 69642-6 0 9990 2 28054 98.9893 250.8137 0006786 350.9544 118.6972 14.14486206177746
UTC large
Height (km)
Speed (km/s)
/
Latitude / Longitude
Inclination (degrees)
Orbital Period (minutes)
Azimuth
Elevation
Range (km)
Doppler Factor

Next 0 passes for location: London (51.5072 / 0.1276)

No passes found over London.
DMSP 5D-3 F16 (USA 172)